Philadelphia, PA

7:23 PM EST on February 06, 2016 (GMT -0500)
Northeast Philadelphia

Weather History for KPNE - September, 2012

Change the Weather History Date:

Tuesday, September 25, 2012

  Actual Average Record
Temperature  
Mean Temperature 59 °F -  
Max Temperature 72 °F 71 °F 89 °F (2010)
Min Temperature 46 °F 52 °F 37 °F (1997)
Degree Days  
Heating Degree Days 6    
Growing Degree Days 9 (Base 50)    
Moisture  
Dew Point 49 °F    
Average Humidity 68    
Maximum Humidity 93    
Minimum Humidity 42    
Precipitation  
Precipitation 0.00 in - - ()
Sea Level Pressure  
Sea Level Pressure 30.18 in    
Wind  
Wind Speed 4 mph (SW)    
Max Wind Speed 15 mph    
Max Gust Speed 26 mph    
Visibility 10 miles    
Events      
Averages and records for this station are not official NWS values.
T = Trace of Precipitation, MM = Missing Value Source: NWS Daily Summary

Daily Weather History Graph

Daily Weather History Graph

Search for Another Location

Airport or City:

Trip Planner

Search our weather history database for the weather conditions in past years. The results will help you decide how hot, cold, wet, or windy it might be!

Date:

Astronomy

Sep. 25, 2012 Rise Set
Actual Time 6:50 AM EDT 6:51 PM EDT
Civil Twilight 6:23 AM EDT 7:18 PM EDT
Nautical Twilight 5:52 AM EDT 7:49 PM EDT
Astronomical Twilight 5:20 AM EDT 8:21 PM EDT
Moon 4:14 PM EDT (9/25) 2:09 AM EDT (9/25)
Length of Visible Light 12h 54m
Length of Day
12h 00m
Waxing Gibbous, 80% of the Moon is Illuminated
Sep 25
Waxing Gibbous
Sep 29
Full
Oct 8
Last Quarter
Oct 15
New
Oct 21
First Quarter

Hourly Weather History & Observations

Time (EDT) Temp. Dew Point Humidity Pressure Visibility Wind Dir Wind Speed Gust Speed Precip Events Conditions
12:54 AM 48.0 °F 44.1 °F 86% 30.18 in 10.0 mi Calm Calm - N/A   Clear
1:54 AM 46.9 °F 44.1 °F 90% 30.18 in 10.0 mi Calm Calm - N/A   Clear
2:54 AM 46.9 °F 44.1 °F 90% 30.17 in 10.0 mi Calm Calm - N/A   Clear
3:54 AM 46.0 °F 44.1 °F 93% 30.17 in 10.0 mi Calm Calm - N/A   Clear
4:54 AM 46.0 °F 43.0 °F 89% 30.18 in 10.0 mi Calm Calm - N/A   Clear
5:54 AM 46.9 °F 43.0 °F 86% 30.19 in 10.0 mi Calm Calm - N/A   Clear
6:54 AM 46.9 °F 43.0 °F 86% 30.19 in 10.0 mi Calm Calm - N/A   Clear
7:54 AM 52.0 °F 48.0 °F 86% 30.21 in 10.0 mi Calm Calm - N/A   Clear
8:54 AM 60.1 °F 53.1 °F 78% 30.22 in 10.0 mi West 4.6 mph - N/A   Clear
9:54 AM 63.0 °F 51.1 °F 65% 30.23 in 10.0 mi WSW 11.5 mph - N/A   Clear
10:54 AM 66.0 °F 48.9 °F 54% 30.21 in 10.0 mi West 11.5 mph - N/A   Clear
11:54 AM 66.9 °F 48.0 °F 51% 30.20 in 10.0 mi SSW 9.2 mph 21.9 mph N/A   Clear
12:54 PM 70.0 °F 50.0 °F 49% 30.20 in 10.0 mi SW 9.2 mph 19.6 mph N/A   Clear
1:54 PM 72.0 °F 50.0 °F 46% 30.18 in 10.0 mi SW 13.8 mph 19.6 mph N/A   Partly Cloudy
2:54 PM 71.6 °F 48.2 °F 43% 30.18 in 10.0 mi SSW 15.0 mph 26.5 mph N/A   Partly Cloudy
3:54 PM 72.0 °F 48.0 °F 43% 30.14 in 10.0 mi SW 15.0 mph 21.9 mph N/A   Clear
4:54 PM 72.0 °F 48.0 °F 43% 30.14 in 10.0 mi SW 10.4 mph - N/A   Clear
5:54 PM 71.1 °F 46.9 °F 42% 30.14 in 10.0 mi SSW 11.5 mph 16.1 mph N/A   Clear
6:54 PM 68.0 °F 51.1 °F 55% 30.15 in 10.0 mi Variable 4.6 mph - N/A   Clear
7:54 PM 66.0 °F 53.1 °F 63% 30.16 in 10.0 mi SSE 5.8 mph - N/A   Scattered Clouds
8:54 PM 64.9 °F 54.0 °F 68% 30.15 in 10.0 mi South 4.6 mph - N/A   Scattered Clouds
9:54 PM 63.0 °F 54.0 °F 72% 30.15 in 10.0 mi South 3.5 mph - N/A   Clear
10:54 PM 62.6 °F 55.4 °F 77% 30.16 in 10.0 mi SSW 4.6 mph - N/A   Scattered Clouds
11:54 PM 63.0 °F 55.0 °F 75% 30.16 in 10.0 mi Variable 3.5 mph - N/A   Overcast